DW6536 Weather Reports


time (UTC)temp
C
wind
direction
speed
KPH
gust
KPH
rain 1hr
cm
rain 24hr
cm
rain mn
cm
humidity
%
barometer
mb
20260509213008 32 53 1.6 0.0 0.00 0.00 0.00 52 1005.8
20260509211514 31 86 3.2 0.0 0.00 0.00 0.00 55 1006.1
20260509210002 32 97 1.6 0.0 0.00 0.00 0.00 55 1006.3
20260509204601 31 139 3.2 0.0 0.00 0.00 0.00 51 1006.5
20260509203056 30 137 3.2 0.0 0.00 0.00 0.00 46 1006.6
20260509201552 29 96 3.2 0.0 0.00 0.00 0.00 50 1007.0
20260509200058 30 136 4.8 0.0 0.00 0.00 0.00 50 1007.5
20260509194549 30 85 1.6 0.0 0.00 0.00 0.00 62 1007.3
20260509193049 30 47 3.2 0.0 0.00 0.00 0.00 61 1007.1
20260509191548 30 347 1.6 0.0 0.00 0.00 0.00 61 1007.1
20260509190049 30 62 3.2 0.0 0.00 0.00 0.00 61 1007.3
20260509184545 30 359 1.6 0.0 0.00 0.00 0.00 62 1007.6
20260509183045 30 14 1.6 0.0 0.00 0.00 0.00 62 1007.8
20260509181543 30 2 1.6 0.0 0.00 0.00 0.00 61 1008.1
20260509180041 30 258 3.2 0.0 0.00 0.00 0.00 66 1008.4
20260509174539 28 276 1.6 0.0 0.00 0.00 0.00 70 1008.4
20260509173103 28 295 1.6 0.0 0.00 0.00 0.00 69 1008.5
20260509171541 29 251 1.6 0.0 0.00 0.00 0.00 69 1009.0
20260509170038 29 229 1.6 0.0 0.00 0.00 0.00 68 1009.1
20260509164532 28 309 1.6 0.0 0.00 0.00 0.00 71 1008.9
20260509163029 28 285 1.6 0.0 0.00 0.00 0.00 73 1009.2
20260509161528 27 308 3.2 0.0 0.00 0.00 0.00 75 1009.1
20260509160024 27 222 1.6 0.0 0.00 0.00 0.00 77 1008.9
20260509154523 26 253 3.2 0.0 0.00 0.00 0.00 78 1008.9
20260509153030 26 178 3.2 0.0 0.00 0.00 0.00 79 1008.9
20260509151519 26 165 1.6 0.0 0.00 0.00 0.00 80 1008.6
20260509150020 26 268 1.6 0.0 0.00 0.00 0.00 79 1008.6
20260509144517 26 206 1.6 0.0 0.00 0.00 0.00 80 1008.6
20260509143017 26 116 1.6 0.0 0.00 0.00 0.00 81 1008.4
20260509141510 24 108 1.6 0.0 0.00 0.00 0.00 85 1008.1
20260509140006 23 160 1.6 0.0 0.00 0.00 0.00 88 1007.7
20260509134502 22 168 3.2 0.0 0.00 0.00 0.00 91 1007.6
20260509133105 22 109 3.2 0.0 0.00 0.00 0.00 92 1008.0
20260509131605 22 86 1.6 0.0 0.00 0.00 0.00 93 1008.0
20260509130128 21 296 0.0 0.0 0.00 0.00 0.00 93 1008.3
20260509124602 21 296 0.0 0.0 0.00 0.00 0.00 93 1008.7
20260509123126 21 348 0.0 0.0 0.00 0.00 0.00 93 1008.5
20260509121558 21 12 0.0 0.0 0.00 0.00 0.00 93 1008.3
20260509120058 21 12 0.0 0.0 0.00 0.00 0.00 93 1008.6
20260509114626 21 111 0.0 0.0 0.00 0.00 0.00 92 1008.5
20260509113124 21 111 0.0 0.0 0.00 0.00 0.00 92 1009.2
20260509111555 21 358 0.0 0.0 0.00 0.00 0.00 93 1009.5
20260509110100 21 312 0.0 0.0 0.00 0.00 0.00 92 1009.7
20260509104553 21 5 1.6 0.0 0.00 0.00 0.00 92 1009.7
20260509103102 21 14 0.0 0.0 0.00 0.00 0.00 92 1009.8
20260509101600 21 7 0.0 0.0 0.00 0.00 0.00 92 1009.6
20260509100050 21 137 0.0 0.0 0.00 0.00 0.00 92 1009.1
20260509094550 21 137 0.0 0.0 0.00 0.00 0.00 92 1008.6
20260509093047 21 137 0.0 0.0 0.00 0.00 0.00 92 1008.1
20260509091551 21 137 0.0 0.0 0.00 0.00 0.00 91 1008.1
20260509090047 21 137 0.0 0.0 0.00 0.00 0.00 91 1008.1
20260509084543 22 137 0.0 0.0 0.00 0.00 0.00 91 1008.2
20260509083042 22 137 0.0 0.0 0.00 0.00 0.00 91 1008.5
20260509081540 22 137 0.0 0.0 0.00 0.00 0.00 90 1008.6
20260509080043 22 137 0.0 0.0 0.00 0.00 0.00 90 1008.6
20260509074537 22 137 0.0 0.0 0.00 0.00 0.00 89 1008.7
20260509073039 22 137 0.0 0.0 0.00 0.00 0.00 89 1008.8
20260509071534 22 137 0.0 0.0 0.00 0.00 0.00 88 1008.9
20260509070033 22 137 0.0 0.0 0.00 0.00 0.00 88 1009.1
20260509064536 22 137 0.0 0.0 0.00 0.00 0.00 88 1008.6
20260509063036 22 137 0.0 0.0 0.00 0.00 0.00 88 1008.8
20260509061531 22 137 1.6 0.0 0.00 0.00 0.00 88 1008.8
20260509060029 22 165 1.6 0.0 0.00 0.00 0.00 88 1008.4
20260509054535 22 145 3.2 0.0 0.00 0.00 0.00 88 1008.5
20260509053025 22 131 3.2 0.0 0.00 0.00 0.00 88 1007.7
20260509051523 22 126 1.6 0.0 0.00 0.00 0.00 88 1007.5
20260509050026 22 135 1.6 0.0 0.00 0.00 0.00 87 1007.4
20260509044521 22 140 0.0 0.0 0.00 0.00 0.00 87 1007.6
20260509043021 22 134 1.6 0.0 0.00 0.00 0.00 87 1007.9
20260509041522 22 131 0.0 0.0 0.00 0.00 0.00 87 1008.1
20260509040033 22 124 1.6 0.0 0.00 0.00 0.00 87 1008.2
20260509034519 22 119 0.0 0.0 0.00 0.00 0.00 87 1008.1
20260509033017 21 145 0.0 0.0 0.00 0.00 0.00 86 1007.8
20260509031525 22 179 0.0 0.0 0.00 0.00 0.00 85 1007.8
20260509030016 22 161 0.0 0.0 0.00 0.00 0.00 84 1007.7
20260509024516 22 165 0.0 0.0 0.00 0.00 0.00 83 1007.7
20260509023015 23 131 1.6 0.0 0.00 0.00 0.00 83 1007.6
20260509021517 23 136 1.6 0.0 0.00 0.00 0.00 82 1007.3
20260509020014 23 143 1.6 0.0 0.00 0.00 0.00 82 1007.0
20260509014531 23 116 1.6 0.0 0.00 0.00 0.00 81 1006.9
20260509013013 24 126 1.6 0.0 0.00 0.00 0.00 80 1006.7
20260509011511 24 189 3.2 0.0 0.00 0.00 0.00 78 1006.7
20260509010011 25 136 1.6 0.0 0.00 0.00 0.00 77 1006.8
20260509004510 25 143 1.6 0.0 0.00 0.00 0.00 77 1006.7
20260509003010 25 139 3.2 0.0 0.00 0.00 0.00 77 1006.8
20260509001509 25 138 1.6 0.0 0.00 0.00 0.00 76 1006.8
20260509000009 25 150 0.0 0.0 0.00 0.00 0.00 76 1006.7
20260508234509 25 150 1.6 0.0 0.00 0.00 0.00 76 1007.0
20260508233008 25 123 3.2 0.0 0.00 0.00 0.00 75 1006.8
20260508231508 25 137 1.6 0.0 0.00 0.00 0.00 74 1006.8
20260508230007 25 155 1.6 0.0 0.00 0.00 0.00 74 1006.8
20260508224506 25 150 1.6 0.0 0.00 0.00 0.00 74 1006.9
20260508223008 26 145 1.6 0.0 0.00 0.00 0.00 73 1006.9
20260508221505 26 110 1.6 0.0 0.00 0.00 0.00 73 1006.9
20260508220013 26 164 3.2 0.0 0.00 0.00 0.00 72 1006.9
20260508214502 27 199 3.2 0.0 0.00 0.00 0.00 70 1007.1